Theta_e
327 329 329 329 328 330 331 331 332 332 332 332 332 332 331 331 332 331 330 330 330 329 329 329 329 329 329 330 330 329 324 314 314 313 312 317 325 331 328 326 327 329 327 319 321 320 317 315 315 312 311 308 303 301 304 307 304 302 293 288 289 288 291 293 292 291 291 293 294 294 295 296 293 296 300 305 306 305 306 309 308 312 313 313 314 316 324 324
327 327 328 329 329 328 330 331 330 332 331 331 331 331 331 331 331 331 330 329 329 329 329 329 329 329 329 330 330 327 317 311 310 310 311 325 332 330 328 328 329 331 326 319 318 317 316 313 310 310 309 311 308 301 304 305 305 295 290 289 290 290 294 296 292 293 293 294 296 296 293 297 297 297 298 300 300 305 305 308 308 310 312 315 317 322 322 324
326 327 326 328 329 328 329 330 331 331 331 330 330 331 330 330 330 330 330 329 329 329 329 329 329 329 328 329 327 325 316 310 310 307 312 333 331 330 330 329 328 327 319 317 318 318 317 313 313 311 308 310 301 297 300 299 303 297 293 289 288 294 295 295 293 294 295 295 295 295 294 294 296 298 297 299 300 300 302 306 306 307 311 313 316 321 321 323
325 326 327 327 329 329 329 330 331 331 331 330 330 330 329 329 329 330 330 329 329 328 329 328 328 328 328 328 326 316 312 307 303 307 317 334 330 329 329 328 326 321 317 316 317 313 312 312 312 312 309 309 305 301 296 297 299 297 294 290 292 293 295 295 293 294 293 295 296 296 294 294 295 296 298 297 299 298 299 305 308 309 314 314 318 320 321 321
324 325 326 327 328 329 329 329 331 330 331 330 329 329 328 328 329 329 329 329 329 328 329 328 328 328 327 327 323 315 307 299 300 313 322 333 331 330 329 327 323 315 317 316 315 314 312 311 310 310 310 306 303 301 295 297 300 297 293 294 294 292 293 294 292 291 293 293 296 293 296 296 295 296 296 300 298 297 300 302 307 312 317 316 317 320 321 321
323 324 326 327 328 329 329 329 330 330 330 330 329 329 328 328 328 329 329 329 328 328 328 328 328 327 327 326 313 311 305 290 306 310 332 333 331 331 328 326 324 316 316 314 312 312 311 311 310 306 305 306 305 302 297 296 297 290 291 293 291 292 294 294 293 292 293 295 295 294 297 296 297 296 295 301 300 299 298 302 309 315 318 320 321 321 320 320
322 323 325 325 327 328 327 327 329 330 330 330 329 329 329 329 328 328 328 328 328 328 328 327 327 327 326 321 310 309 304 303 308 314 333 334 331 330 328 326 324 314 314 310 311 311 310 309 310 304 304 306 306 302 297 295 296 292 291 292 295 294 294 294 294 291 292 295 296 296 295 297 294 296 294 297 298 295 293 299 311 316 318 320 319 320 321 320
321 322 323 324 325 326 327 327 328 329 330 330 329 329 329 329 329 328 328 328 328 328 328 327 327 327 323 312 308 303 303 301 309 317 332 332 327 325 323 314 312 313 313 310 310 309 311 308 308 307 305 304 307 302 300 298 294 293 293 293 293 292 294 294 291 290 292 294 292 294 297 297 296 295 293 297 299 295 297 306 316 317 318 319 319 319 320 320
321 321 322 323 324 325 326 326 327 328 329 330 329 329 329 329 329 328 327 327 328 328 327 327 326 326 323 311 305 301 300 308 313 319 328 325 319 315 313 310 311 313 311 311 312 310 311 308 308 309 303 306 305 304 300 302 294 295 294 293 292 292 294 294 293 292 293 295 294 295 294 293 294 295 294 298 297 294 301 314 316 317 318 318 318 319 319 319
320 321 322 323 323 324 325 325 325 325 329 330 329 329 329 329 328 328 327 327 327 327 327 326 327 325 316 309 303 298 307 310 314 324 326 321 314 311 311 310 309 309 308 308 312 310 309 307 308 309 310 305 305 306 303 302 299 295 294 294 293 293 292 294 293 293 292 294 292 296 293 294 293 294 294 294 294 300 306 313 315 317 317 318 318 319 319 319
320 321 322 322 323 324 326 325 325 325 326 328 329 329 329 329 328 327 327 327 327 327 327 326 326 321 312 310 302 298 311 316 318 325 324 320 311 309 308 309 310 308 309 308 310 313 311 311 309 310 310 307 306 305 304 304 300 296 295 295 294 292 291 291 291 292 294 296 292 294 293 292 292 293 293 292 297 302 306 312 314 315 316 317 318 318 319 319
320 321 321 322 323 323 325 326 326 326 327 327 328 329 329 328 328 327 327 327 327 327 327 326 325 318 311 309 303 304 312 314 319 325 323 317 310 311 310 310 309 310 309 306 308 309 310 310 310 308 304 309 303 305 305 299 298 296 295 291 292 292 293 293 293 293 294 295 292 291 294 292 292 292 296 290 299 302 306 311 313 314 315 316 317 318 318 319
320 320 321 321 322 323 323 325 326 326 326 327 328 328 328 328 327 327 327 327 327 327 326 326 323 317 312 303 305 311 313 313 321 323 322 317 313 314 313 311 310 309 311 309 307 309 310 309 310 304 306 305 303 303 308 303 297 297 295 291 290 289 288 293 294 292 293 294 290 294 286 286 292 296 295 292 303 302 303 307 312 313 313 314 315 317 318 319
319 319 320 321 322 323 324 324 324 325 326 326 327 327 327 327 327 327 327 326 327 327 326 326 318 316 310 302 307 310 314 316 321 321 318 315 315 310 310 309 310 309 311 308 308 309 310 309 309 306 310 303 299 308 307 301 296 292 292 292 287 285 284 289 293 292 293 293 292 293 287 287 291 295 294 292 301 304 303 306 310 310 311 313 314 316 317 319
319 319 319 320 321 322 323 324 324 325 326 326 326 326 327 326 327 327 327 326 327 326 325 322 317 314 307 306 309 314 323 320 318 318 316 315 311 308 306 308 308 309 308 308 307 309 308 307 306 302 298 302 304 303 299 298 297 296 291 287 286 285 284 289 291 292 293 293 291 292 286 290 291 291 290 292 299 302 301 304 307 309 311 312 313 314 315 316
318 319 319 320 321 321 322 323 323 325 326 326 326 325 325 326 326 326 327 325 326 325 321 316 316 313 307 303 305 321 317 312 313 316 314 316 313 309 306 306 307 306 306 304 307 308 307 306 301 301 299 303 300 297 296 295 295 293 290 286 285 283 286 288 292 290 293 292 293 291 287 286 291 291 287 288 298 301 301 301 304 307 308 309 311 312 313 313
318 318 319 320 321 321 322 322 322 323 325 325 325 325 324 325 326 326 326 326 323 321 318 313 314 314 303 308 314 309 308 311 313 311 307 309 313 307 306 305 304 303 305 305 306 306 305 300 299 300 301 297 298 297 291 289 288 289 287 285 287 286 286 286 288 291 291 292 290 291 289 288 289 288 287 291 295 298 299 300 302 304 306 307 308 309 311 312
318 318 319 320 321 321 322 322 321 323 325 324 323 324 323 325 327 325 323 318 316 315 314 315 314 310 305 306 301 305 308 308 312 310 306 305 309 306 305 302 303 304 304 302 305 301 301 297 300 295 295 295 296 296 291 286 289 288 285 284 286 285 285 287 288 290 292 291 290 289 288 292 293 293 290 291 290 295 298 299 299 301 302 303 304 306 308 310
318 318 318 320 321 321 321 322 323 323 324 325 325 325 326 326 323 319 311 312 309 303 302 303 306 297 296 301 305 308 309 312 311 307 302 305 306 304 303 305 305 302 298 298 298 299 299 298 299 294 291 292 293 296 295 290 292 289 288 287 287 287 287 287 289 288 293 289 288 287 289 292 293 294 293 291 291 292 294 292 291 295 298 299 299 301 303 307
318 318 319 320 321 321 321 322 323 323 325 323 322 321 317 310 305 302 308 310 307 306 309 308 311 302 301 305 304 307 313 315 307 306 304 305 305 302 302 303 302 301 299 295 296 297 300 293 291 291 294 294 295 297 295 293 292 290 290 288 287 287 287 289 288 289 289 290 288 288 290 291 293 294 294 291 290 291 290 291 292 292 293 296 297 298 299 302
318 318 319 320 321 321 322 321 322 323 323 322 320 315 304 303 298 293 301 307 310 305 307 310 311 299 300 304 307 310 306 304 308 304 303 306 305 303 298 301 298 294 296 297 295 298 298 291 291 294 295 295 295 296 296 293 292 291 288 287 286 287 285 289 290 290 289 289 288 287 287 290 292 293 291 289 290 292 292 292 292 293 292 293 296 298 298 301
317 318 319 320 321 322 322 321 322 322 323 321 318 311 310 309 313 311 310 300 303 303 304 310 301 300 303 305 309 312 307 301 304 303 305 303 302 300 297 298 296 293 294 295 295 292 291 289 292 295 296 296 296 295 295 293 292 290 289 288 285 286 287 290 289 289 289 289 287 285 286 290 291 292 291 288 291 293 294 295 295 295 293 292 293 295 298 297
317 318 319 320 321 322 322 321 321 321 321 317 313 313 310 313 316 317 314 305 301 303 306 304 298 300 301 304 305 310 304 300 299 301 301 301 300 301 298 296 294 293 293 294 291 289 286 290 294 295 296 295 294 294 293 292 290 290 288 285 283 287 287 285 287 288 290 288 286 284 285 288 290 291 290 289 290 290 292 294 295 294 294 294 294 295 296 297
318 318 319 320 321 322 322 322 322 320 317 317 314 313 314 316 318 315 309 298 295 300 305 305 299 300 300 301 303 305 304 300 301 298 302 300 298 297 297 296 292 292 290 292 292 290 289 291 295 296 295 295 292 293 292 290 288 289 289 286 285 286 287 287 287 288 288 288 286 285 285 285 288 289 290 289 289 290 292 291 291 293 294 295 295 294 294 296
317 318 319 320 320 322 322 322 315 315 318 315 314 313 315 317 317 315 303 297 294 293 304 301 300 301 303 303 305 303 297 300 300 300 300 301 297 297 295 296 293 289 291 292 291 290 289 293 295 294 293 294 293 291 291 290 287 288 290 289 289 288 287 287 287 288 286 285 287 288 280 282 282 284 288 292 289 288 290 291 292 293 293 293 293 294 295 295
318 318 319 320 321 321 323 314 313 318 315 311 312 314 317 317 317 312 303 291 286 293 302 296 304 297 307 301 302 299 303 296 299 301 302 300 303 299 295 293 293 289 291 291 290 289 290 292 294 292 292 292 292 292 292 292 288 286 288 291 290 289 288 288 287 288 282 281 284 287 284 278 282 284 287 289 288 290 291 290 293 293 293 292 293 295 295 295
318 318 319 320 321 321 311 307 319 318 310 310 314 316 316 317 314 309 299 286 284 293 294 301 299 297 304 301 300 304 291 291 299 300 300 302 301 299 295 291 289 291 293 292 287 285 290 289 291 292 291 290 290 290 293 292 288 285 290 290 290 290 289 288 288 288 285 285 286 286 284 279 282 288 285 283 284 287 289 290 290 291 293 294 294 295 295 296
319 319 319 321 321 320 315 317 316 312 311 312 315 315 316 312 309 306 295 279 278 300 291 294 299 305 302 300 302 298 293 299 294 297 301 300 297 296 296 291 292 291 293 292 282 288 292 287 290 289 290 289 289 292 294 293 289 287 293 293 292 292 291 290 289 286 284 285 283 283 284 281 278 282 283 283 285 285 288 289 290 292 292 294 295 296 296 296
319 319 319 320 320 320 320 315 313 311 314 314 315 316 313 310 307 299 286 279 292 290 307 293 304 301 298 301 299 293 295 300 294 298 299 300 300 295 291 290 291 294 293 293 287 286 289 291 292 292 290 288 291 292 294 294 288 290 291 294 291 290 288 289 286 286 284 282 281 283 282 279 278 279 282 281 283 284 286 289 291 291 292 293 295 295 296 295
319 319 319 320 319 319 316 317 314 315 314 315 315 314 312 309 300 289 281 273 294 285 298 294 296 292 297 293 294 294 294 293 292 296 299 295 297 296 291 293 292 291 289 289 287 286 287 291 294 292 290 291 291 293 293 294 293 294 293 292 290 287 286 284 284 283 283 277 282 281 280 281 278 281 285 285 285 287 289 289 289 290 290 291 292 293 295 295
319 319 319 319 314 315 314 309 310 313 315 315 315 312 308 300 288 282 277 283 294 290 293 292 290 297 292 291 289 291 293 291 293 295 292 294 291 291 292 291 291 287 285 286 284 285 286 288 289 289 292 291 292 289 293 294 294 294 290 288 288 287 285 285 282 283 278 278 279 279 279 279 277 278 281 285 284 283 289 290 292 291 289 290 291 291 292 291
319 319 319 319 319 318 311 305 310 314 313 314 312 306 300 284 286 279 276 297 284 287 288 288 292 293 292 294 291 290 289 289 293 293 291 291 289 288 290 287 287 280 280 282 282 284 285 285 287 290 291 291 289 288 288 292 292 291 289 288 284 279 280 278 280 277 277 277 280 277 278 279 280 283 284 284 285 286 284 288 291 291 291 290 289 289 290 290
318 319 319 320 316 315 315 313 314 313 313 312 307 303 292 284 276 284 284 289 283 292 287 294 290 292 292 291 288 290 291 287 292 292 293 290 288 287 287 286 287 284 279 282 281 283 282 282 286 288 290 291 291 286 284 285 289 289 287 284 282 277 277 275 274 270 272 277 278 278 280 278 279 281 289 290 293 293 289 287 287 288 290 292 292 290 291 291
318 318 317 317 316 316 313 314 314 313 311 309 303 295 289 282 279 289 286 286 287 292 293 290 290 291 292 288 288 290 287 289 291 291 292 288 288 285 287 286 288 283 281 282 282 282 277 278 284 287 285 290 290 290 289 286 288 289 291 288 284 282 276 274 274 276 277 279 277 278 277 274 277 282 284 291 291 289 285 286 286 286 287 288 289 290 290 290
317 317 318 316 313 313 313 314 313 313 310 305 297 289 282 282 286 283 284 285 289 291 289 292 289 289 288 288 288 291 289 285 290 290 290 288 286 286 286 287 286 286 283 282 281 280 281 280 283 288 287 290 290 291 292 290 289 288 289 290 285 284 284 278 277 276 274 273 274 275 277 278 282 282 285 285 286 288 288 287 286 289 289 290 291 293 293 292
316 315 315 310 308 311 314 314 314 313 308 300 291 284 283 286 283 288 287 292 292 289 288 290 289 287 286 285 287 289 289 289 287 289 287 288 289 287 288 287 286 288 287 283 282 278 281 280 285 286 288 288 290 290 291 292 283 286 286 285 286 289 288 282 279 279 277 274 274 274 277 281 280 286 290 283 283 289 288 288 287 289 289 289 292 293 292 292
310 311 306 308 308 312 313 314 313 310 306 297 289 284 288 288 288 291 293 290 292 292 289 284 284 285 284 283 286 288 287 290 288 288 284 287 285 288 288 289 290 287 290 288 282 281 281 279 285 285 286 288 287 289 289 288 289 287 284 287 289 290 289 284 278 274 275 274 275 272 277 277 277 280 283 281 286 288 288 289 287 286 285 288 292 292 293 292
307 306 306 307 309 313 314 314 312 308 302 294 287 289 287 288 290 291 291 293 292 292 289 287 286 290 285 285 284 288 288 288 285 287 284 287 283 292 289 288 288 291 289 288 287 283 285 279 284 285 285 288 287 290 289 289 289 289 287 292 288 281 281 281 279 275 272 272 270 271 274 275 276 280 282 285 283 288 290 290 287 289 289 291 292 292 292 290
307 304 298 306 312 313 313 313 309 303 296 290 288 286 287 287 291 291 294 295 294 292 289 289 287 288 288 285 287 288 288 285 286 285 283 284 283 286 291 291 286 288 290 288 287 283 285 276 279 285 285 287 286 287 284 285 288 289 289 287 288 285 283 279 281 276 277 275 270 273 271 279 279 279 281 288 289 289 290 288 288 289 290 292 292 292 292 291
303 299 296 309 312 314 313 311 303 299 293 287 288 287 289 286 288 293 295 295 291 292 288 289 290 287 288 288 288 286 287 287 286 285 285 283 286 286 289 292 287 287 289 288 289 287 283 281 275 281 285 285 282 284 284 286 283 284 285 284 286 286 286 286 284 282 280 272 269 270 271 274 278 282 284 289 290 291 289 289 289 289 290 291 292 292 291 291
305 298 296 309 311 313 311 305 297 292 291 292 293 287 286 287 289 292 296 297 294 291 291 291 290 287 288 286 287 289 285 283 287 284 284 282 287 282 287 291 289 287 287 288 287 286 282 281 278 280 282 281 281 284 286 288 290 287 286 285 286 284 281 281 280 280 275 277 273 268 275 276 282 282 287 288 289 287 286 287 289 289 289 289 290 291 291 291
299 290 294 309 311 311 304 294 293 296 293 289 289 287 289 295 290 292 294 295 294 289 293 292 291 289 289 288 289 288 287 285 286 285 283 282 287 283 286 290 291 290 290 286 287 285 284 280 280 276 280 284 284 286 285 285 285 286 286 286 288 286 283 281 278 277 277 278 274 273 272 279 284 283 284 286 286 285 284 286 288 289 289 289 289 290 291 291
297 294 305 308 311 308 300 291 294 292 290 291 290 289 291 290 290 292 293 293 290 287 292 291 291 290 289 290 288 288 288 284 285 285 285 283 285 285 288 291 291 292 292 285 288 286 290 279 279 274 277 280 283 283 284 284 288 287 286 284 285 285 286 283 281 280 282 278 276 275 274 281 287 283 283 282 281 282 284 284 287 288 288 288 288 288 290 291
297 296 298 307 310 307 296 285 285 288 291 290 292 290 291 289 291 290 291 292 290 289 291 291 291 294 290 291 291 288 290 283 286 286 283 284 286 285 288 291 293 291 291 288 289 291 282 280 282 272 272 277 279 283 284 284 284 281 282 284 284 285 286 284 283 283 281 280 280 277 277 277 286 280 281 279 280 282 285 284 284 287 289 288 288 287 288 290
298 300 300 301 306 304 292 293 291 289 290 289 290 287 289 289 292 293 292 291 287 290 290 289 292 292 290 292 290 291 291 290 284 286 284 284 288 286 288 291 294 292 294 293 295 293 288 281 283 276 275 273 271 274 278 281 282 282 281 283 284 287 284 284 282 282 280 282 281 277 281 280 282 283 284 284 283 284 285 285 284 285 287 288 290 289 289 290
294 285 293 296 300 300 297 296 296 292 290 289 287 285 287 287 290 291 293 288 287 288 287 289 287 292 289 290 287 287 288 286 287 284 286 285 286 287 286 289 292 293 293 295 293 293 281 281 284 284 282 280 282 282 283 285 283 283 281 284 284 285 285 286 284 282 281 281 279 284 285 283 283 285 284 286 284 285 287 287 288 288 287 288 289 290 290 291
296 290 290 286 296 296 293 295 294 294 290 292 286 287 286 287 289 288 290 287 289 291 287 291 289 288 287 289 287 286 288 283 283 286 286 286 284 285 284 288 288 290 294 293 293 289 280 283 284 285 284 283 281 282 285 289 285 286 284 284 284 284 284 284 282 282 282 279 280 285 284 284 285 284 285 285 287 288 288 286 287 288 288 289 290 289 292 289
289 291 295 296 290 287 288 290 295 293 293 292 286 288 287 286 287 286 287 288 288 291 289 288 291 291 290 289 288 284 285 284 283 283 284 283 284 285 287 287 288 289 291 290 292 290 284 284 283 283 282 282 281 284 286 287 287 286 286 287 285 285 284 283 284 286 283 283 282 284 283 285 285 286 289 289 288 291 292 290 288 288 287 287 289 290 290 290
293 293 292 295 287 292 292 293 294 293 291 291 286 288 286 287 286 288 287 286 289 288 291 284 287 289 290 291 289 285 286 282 281 282 285 283 285 283 281 284 287 285 287 286 287 280 287 279 280 282 282 283 281 283 285 286 285 285 286 287 288 286 285 286 286 287 286 285 287 285 285 286 286 287 289 291 291 291 288 286 285 286 288 289 289 290 291 292
291 292 288 291 290 293 292 293 293 293 290 291 285 286 288 287 287 288 287 288 285 287 288 288 287 288 290 289 290 286 287 289 287 283 284 286 280 285 285 284 284 282 285 285 287 285 287 279 285 281 279 279 281 282 282 283 284 284 284 286 287 287 287 287 287 287 286 286 287 286 285 286 287 287 289 289 288 288 287 288 290 291 290 288 290 291 293 294
288 288 292 292 289 291 293 293 292 292 289 289 286 285 287 288 287 290 287 288 290 287 288 288 288 288 290 289 289 288 291 291 290 290 290 290 286 289 288 282 288 286 284 285 284 285 286 276 280 279 278 275 280 281 281 280 280 281 283 284 284 285 283 285 284 286 285 285 286 285 284 285 287 288 289 289 289 289 289 291 291 291 289 287 289 291 293 295
291 292 294 294 287 293 290 293 293 292 287 290 288 285 287 288 289 291 288 287 287 290 290 290 290 289 287 288 287 289 292 292 292 292 293 294 293 291 290 290 292 289 287 287 285 286 284 280 278 276 278 274 274 277 278 279 280 279 281 284 286 286 286 287 288 288 288 289 285 283 285 286 288 287 288 288 288 289 289 290 291 291 290 289 290 291 292 294
Wind_Speed
17 18 17 17 23 21 23 25 27 28 27 25 25 26 25 24 24 23 22 18 19 19 15 14 14 13 13 10 10 10 7 4 2 2 3 1 3 9 9 8 6 6 10 9 10 8 3 6 7 9 7 6 4 5 3 2 1 1 0 3 1 3 3 4 5 7 1 4 4 4 6 7 3 1 1 3 5 3 2 1 4 2 1 2 2 1 11 11
16 19 20 18 22 22 22 23 27 26 26 28 26 27 26 26 25 24 23 18 19 18 17 15 14 13 13 12 11 7 7 3 2 2 4 3 10 11 10 8 7 7 9 9 11 8 9 4 5 7 7 2 3 2 4 0 0 1 2 2 6 4 5 5 3 6 2 3 6 5 5 7 8 9 4 4 1 2 2 1 2 1 4 3 2 9 12 11
16 17 20 20 20 25 25 24 26 26 26 27 27 26 26 26 25 25 23 20 19 18 17 16 14 13 14 12 9 8 6 3 1 4 3 9 13 12 10 8 6 3 4 9 5 11 10 10 5 8 4 1 4 3 5 2 2 1 3 3 5 6 4 4 3 4 5 2 3 5 5 4 5 5 2 3 7 3 8 6 1 3 2 3 5 10 11 11
17 16 18 21 20 22 27 26 26 27 27 26 25 25 25 25 25 24 23 21 20 19 17 16 16 15 13 12 11 6 7 5 4 3 4 13 14 12 9 8 8 8 11 9 7 10 10 10 7 7 3 2 4 2 3 3 2 1 1 3 2 1 1 4 4 6 4 3 2 4 2 3 3 3 5 5 6 6 7 7 10 12 9 8 10 12 11 12
17 17 17 20 22 20 24 27 25 29 28 25 27 26 26 25 25 24 23 22 21 20 19 17 17 16 14 12 10 8 8 2 7 7 8 17 15 14 13 12 10 5 11 11 13 9 9 8 5 3 3 1 3 4 0 3 2 1 4 1 3 0 1 6 3 4 2 4 4 4 8 8 3 0 5 12 11 10 12 10 8 9 13 13 14 13 12 13
18 17 18 18 21 20 23 26 26 26 25 26 26 25 24 22 23 24 25 23 22 21 20 19 18 16 15 12 7 7 9 8 1 2 15 19 17 15 14 13 13 12 13 10 9 9 12 3 8 3 3 3 3 5 1 1 1 2 3 2 2 3 3 3 2 2 2 2 5 7 6 5 8 3 5 11 13 3 1 4 9 9 15 16 17 15 14 14
19 18 18 18 20 21 19 21 25 26 26 25 24 22 22 22 22 22 22 22 22 21 21 20 18 17 14 10 4 7 10 3 1 3 17 18 17 15 15 14 11 11 10 10 12 7 6 8 5 3 5 3 3 3 3 3 0 5 3 3 8 1 5 6 5 3 3 8 8 4 2 6 5 6 2 7 6 1 3 2 8 5 5 8 12 15 18 18
20 19 18 18 19 20 23 23 27 26 27 27 27 26 26 23 22 23 23 23 22 21 20 20 19 16 14 6 6 5 6 4 2 3 15 14 12 15 15 8 11 8 11 13 10 10 11 11 9 4 2 7 4 7 4 5 3 3 1 5 7 5 6 7 4 4 2 4 0 4 6 7 5 3 3 9 9 2 2 4 8 7 8 8 12 15 14 15
20 21 19 19 19 19 22 21 23 28 28 29 28 27 26 25 24 23 23 23 22 22 21 20 19 17 12 5 4 7 9 1 2 6 12 12 11 10 12 6 6 12 7 8 7 14 12 6 7 6 6 4 2 7 2 3 5 1 2 4 7 9 11 9 5 2 0 0 3 3 5 0 3 1 3 10 5 2 3 5 8 9 10 11 12 14 14 13
22 21 21 20 19 20 21 24 24 18 26 30 29 29 28 26 24 22 23 24 22 22 22 22 19 18 8 7 5 9 2 4 3 9 9 12 12 12 6 11 6 9 9 5 4 9 6 6 11 4 7 5 2 3 2 5 4 1 6 7 9 13 9 4 3 1 1 1 4 6 2 0 2 2 9 2 4 6 5 7 6 11 13 12 10 11 11 13
23 22 22 21 20 22 22 24 24 24 22 23 30 31 28 26 25 23 20 22 23 22 22 22 21 15 7 7 11 10 2 1 1 8 11 11 13 11 7 10 9 10 12 7 9 9 6 12 7 4 2 3 5 2 1 2 0 4 7 11 11 7 4 6 4 4 0 0 2 4 1 1 1 1 10 3 3 7 9 6 9 9 11 12 11 11 10 10
25 24 23 22 22 22 22 25 26 25 25 25 23 26 27 26 26 25 24 22 23 22 22 21 22 9 4 8 9 6 3 1 2 9 11 12 9 7 7 8 5 8 12 11 6 3 10 11 12 6 5 6 4 2 2 1 1 3 8 11 14 8 6 4 5 3 1 1 3 3 1 1 1 7 8 2 2 5 8 9 10 10 9 9 10 10 9 11
27 26 24 23 23 23 24 22 25 28 28 29 28 26 26 26 26 26 24 21 20 21 22 22 14 5 10 7 4 2 2 2 5 9 8 4 4 5 4 3 4 3 3 11 7 4 7 11 9 5 4 7 6 3 1 0 1 4 3 2 10 7 6 7 0 1 3 1 4 2 5 6 9 16 2 0 6 5 5 6 8 8 8 7 8 9 10 7
28 27 26 25 23 24 25 24 21 24 27 25 27 28 27 26 26 25 25 22 21 17 19 21 7 7 8 2 1 3 2 1 8 12 10 6 8 4 5 3 6 5 5 6 4 4 6 2 4 8 1 4 5 2 2 3 4 1 4 1 4 5 6 4 1 2 4 1 3 2 5 7 9 11 5 3 5 10 8 6 8 7 7 7 8 9 10 11
29 28 27 25 24 25 27 27 22 25 28 28 27 25 26 26 25 26 26 22 24 20 17 11 4 9 6 1 3 4 3 5 10 11 10 10 9 7 5 4 7 7 4 5 6 2 4 7 8 4 2 1 6 4 3 4 4 2 3 6 2 4 6 7 1 4 8 1 2 4 4 10 8 9 4 4 6 5 9 8 8 8 8 9 8 9 9 10
30 29 28 26 26 26 25 26 29 28 30 29 27 27 26 26 25 23 25 21 25 23 11 11 7 4 8 5 2 2 4 7 9 9 4 11 11 8 6 7 6 6 4 3 3 5 2 4 4 4 3 2 5 7 5 4 1 1 5 2 7 1 5 7 2 2 2 2 1 7 6 4 7 7 3 3 8 8 8 7 8 9 10 9 9 9 9 7
32 31 29 28 27 27 25 26 31 28 30 29 28 26 27 26 27 27 23 22 16 12 13 8 6 6 8 1 2 5 4 2 5 3 2 2 6 13 12 10 6 5 4 4 4 5 2 4 1 2 2 3 5 8 7 4 3 6 2 5 4 5 3 5 4 2 1 1 4 2 4 7 4 2 3 1 6 8 8 9 9 9 9 9 8 8 9 9
33 32 31 29 28 27 27 27 29 29 29 33 30 26 24 26 27 28 16 13 7 5 4 4 5 8 1 2 9 10 4 5 8 7 4 0 9 11 11 6 4 10 8 5 3 5 1 3 1 5 2 4 8 9 12 16 16 11 6 2 6 3 5 5 1 2 6 1 4 3 6 13 11 9 2 3 4 7 12 12 10 9 9 9 8 8 9 10
35 33 32 31 29 29 28 27 31 33 30 33 35 33 30 28 19 11 13 13 14 9 8 9 11 12 9 18 5 10 6 6 8 11 5 9 5 4 3 4 13 14 8 8 2 5 1 3 3 4 9 10 14 15 7 8 10 9 7 4 2 5 5 5 6 3 8 5 5 6 10 13 14 14 7 1 5 7 9 2 3 6 7 6 7 8 9 10
36 35 34 32 30 30 31 29 32 32 30 26 25 21 12 14 7 7 7 16 12 12 2 22 13 6 14 18 9 5 8 9 11 3 6 4 12 5 9 8 6 4 11 9 4 5 2 8 10 13 11 8 6 6 7 7 8 3 1 1 6 5 6 4 4 3 2 1 8 8 9 12 15 13 9 4 3 5 5 7 9 8 8 9 9 10 12 12
37 36 35 33 32 31 33 32 28 33 35 20 21 23 22 20 15 6 11 10 1 4 7 17 8 2 3 10 13 20 14 3 2 5 8 4 9 14 8 9 7 6 5 9 9 2 3 7 11 6 4 9 8 6 5 5 1 1 1 2 6 4 7 5 1 2 4 4 4 5 6 12 13 12 6 1 4 8 10 12 11 11 9 9 10 12 13 15
38 38 36 35 33 33 32 32 31 29 31 20 18 9 11 21 4 20 20 13 2 2 3 15 4 6 3 11 14 16 10 7 9 7 4 7 11 12 5 7 11 11 3 5 5 5 8 12 4 3 5 6 7 6 7 7 6 1 2 2 4 7 4 10 5 1 1 2 9 1 5 12 13 14 6 5 7 6 9 12 15 13 10 9 10 12 12 7
39 38 38 35 35 34 33 32 30 31 19 18 18 10 9 3 7 7 8 11 6 3 7 8 6 11 7 5 2 9 17 12 16 14 11 4 14 9 13 10 9 7 6 8 10 7 5 9 6 6 7 9 6 8 7 6 3 3 2 3 6 1 0 5 2 1 0 3 2 1 5 9 9 8 9 7 7 7 7 8 10 6 10 11 15 14 11 12
40 39 38 37 36 35 34 34 32 25 16 22 20 16 7 3 15 14 19 4 6 4 5 4 6 5 9 11 3 7 15 3 9 14 5 6 12 4 7 11 12 10 11 12 10 11 5 2 7 10 9 11 11 10 10 9 9 4 6 4 4 5 3 4 4 2 2 1 2 1 4 7 7 9 8 5 8 7 7 5 5 6 9 11 6 4 7 13
41 39 39 37 37 36 35 34 19 19 17 17 15 7 12 8 14 16 18 6 5 3 3 3 1 0 3 3 6 9 0 4 3 4 2 7 9 9 7 4 6 9 12 11 6 6 2 3 7 7 6 7 10 11 13 10 8 7 8 8 6 4 5 6 4 3 3 3 3 2 2 8 4 5 10 10 1 6 8 8 10 11 11 9 9 13 11 10
41 41 39 38 37 36 38 23 19 19 23 17 10 12 15 15 10 5 10 4 5 3 8 13 3 4 1 3 4 4 13 4 1 5 6 2 3 4 4 4 3 12 11 10 8 3 5 4 10 11 10 8 9 9 10 9 8 7 7 9 6 6 4 5 5 1 3 5 4 1 9 7 5 5 6 8 7 10 7 6 12 10 9 8 11 12 13 14
40 40 40 38 38 37 23 12 19 21 24 14 10 13 15 15 9 5 8 1 6 7 9 1 7 4 2 5 7 15 12 7 1 4 6 3 10 1 11 8 3 2 4 3 1 6 5 6 5 7 8 11 9 11 12 13 7 6 3 9 6 1 4 6 5 6 7 1 4 1 3 5 8 10 4 3 3 8 10 9 10 9 9 11 12 14 14 14
40 39 39 39 38 39 18 13 23 27 20 15 17 16 15 10 9 4 1 7 6 12 7 3 1 3 3 3 8 5 1 18 8 7 5 1 2 1 3 10 11 13 8 7 9 2 13 8 11 9 9 9 14 8 7 10 8 2 4 4 1 1 2 2 2 6 3 1 8 2 1 2 6 7 3 1 4 6 11 10 11 12 12 13 14 16 15 15
38 39 39 38 38 40 20 15 20 26 18 19 17 18 13 12 10 8 3 4 1 4 3 10 6 7 9 6 5 3 7 11 9 12 3 1 3 3 6 5 4 10 8 11 10 2 1 13 15 15 11 12 4 6 10 13 9 6 2 5 5 5 4 1 2 3 2 2 10 7 4 5 8 5 4 2 2 7 8 10 11 13 14 14 15 15 15 11
38 38 39 40 34 27 12 10 14 12 22 21 20 19 18 14 10 11 8 6 4 8 8 4 8 15 16 15 8 4 11 2 3 5 5 5 6 1 2 4 6 8 5 4 1 4 2 6 7 8 10 6 7 8 9 13 4 3 5 4 3 3 2 3 3 1 1 6 11 5 3 5 7 6 9 8 7 8 9 8 6 7 8 9 10 11 11 8
38 39 39 42 23 16 13 13 9 16 18 17 21 22 18 7 7 8 9 3 6 1 6 11 7 16 18 18 12 3 6 4 6 11 8 3 1 1 4 5 3 5 2 3 4 3 2 1 5 3 3 3 6 4 6 8 8 6 3 4 5 2 2 2 2 1 4 11 3 1 3 4 10 4 5 7 4 4 8 9 11 9 7 9 7 8 10 8
37 40 40 31 19 19 23 15 18 18 17 23 26 18 16 11 1 6 7 4 10 10 17 12 13 17 24 20 14 13 11 5 9 16 16 12 9 11 12 12 11 8 7 10 9 1 1 4 2 1 4 10 6 8 5 6 8 7 3 5 7 2 2 4 1 6 10 7 1 0 2 0 14 6 7 6 9 7 7 10 10 9 8 6 7 9 8 6
37 37 40 26 21 14 15 20 21 22 21 25 20 16 12 9 12 5 7 10 3 16 10 15 23 24 22 19 15 12 9 12 9 14 15 9 8 6 4 4 5 6 8 7 4 4 5 1 1 3 3 5 9 11 6 8 9 10 9 6 7 5 6 9 4 1 5 6 3 1 0 6 3 5 13 16 16 15 9 10 10 9 11 12 9 7 6 6
37 35 28 20 19 12 13 18 17 27 27 22 19 13 8 10 6 4 12 8 9 3 13 13 16 10 18 15 12 13 10 3 17 11 12 9 11 12 9 7 11 6 5 8 11 11 6 4 8 8 3 3 7 8 8 5 7 9 3 6 5 4 4 8 5 11 8 8 2 3 1 7 4 4 4 13 7 7 4 6 7 7 9 9 8 8 8 6
39 31 23 17 11 15 23 22 24 25 22 20 15 14 15 7 4 13 8 5 4 10 12 13 18 21 14 8 7 8 2 5 8 14 14 13 12 11 15 14 7 6 4 12 5 2 10 1 3 1 1 4 10 3 7 7 7 6 4 3 5 12 4 2 5 2 2 4 4 2 6 4 5 3 8 4 7 8 7 8 5 9 5 5 7 8 8 5
33 22 19 12 11 17 22 19 24 26 23 19 16 9 13 11 12 6 10 12 16 17 19 18 15 17 11 7 5 16 5 9 9 7 9 13 13 13 8 4 8 9 11 9 3 5 3 6 1 5 2 1 7 5 4 7 9 5 5 12 6 3 5 2 3 0 1 2 9 1 7 7 7 8 9 4 4 8 5 7 5 6 5 3 7 7 6 5
14 18 17 16 14 19 22 23 20 23 20 18 15 13 9 3 1 11 9 19 18 24 25 24 13 15 13 12 12 15 8 8 12 12 10 7 6 10 11 10 10 6 9 9 1 2 10 3 1 3 3 1 0 1 1 2 2 8 10 8 3 1 4 5 6 2 2 7 8 2 6 5 3 8 4 6 6 12 8 8 6 6 4 5 7 7 7 6
11 6 17 17 20 19 21 23 24 19 17 17 16 12 1 7 3 11 6 10 11 18 18 19 12 21 22 21 18 22 11 16 17 12 13 16 6 13 12 9 6 13 8 2 8 4 6 2 1 0 0 4 2 1 2 1 1 7 9 6 9 6 7 1 1 8 5 7 5 3 1 4 5 6 7 9 2 7 8 7 4 7 6 8 8 8 6 5
9 9 13 17 23 21 19 22 22 18 16 17 14 9 2 1 4 9 17 17 20 23 20 13 17 9 16 16 15 15 18 14 17 12 12 9 10 8 21 11 7 8 11 8 4 2 1 4 2 1 2 1 1 3 10 3 3 1 3 4 0 2 3 4 7 2 3 7 1 9 1 10 6 6 8 11 12 10 13 8 7 7 7 7 7 7 7 6
15 6 6 16 20 22 19 23 18 16 15 19 13 3 4 3 3 9 15 22 13 15 8 16 11 14 14 12 22 17 12 9 16 9 7 3 8 3 11 9 8 8 10 6 5 4 4 2 3 1 2 1 3 2 6 7 6 1 2 5 1 3 1 2 0 5 5 2 2 2 6 5 6 9 9 14 14 13 2 4 6 7 7 9 9 8 6 6
9 6 3 13 20 21 19 17 17 17 16 4 8 4 4 5 5 9 20 20 9 4 7 20 18 17 16 15 15 10 6 6 13 11 8 4 13 5 7 12 9 9 4 2 5 4 3 2 6 1 1 4 6 3 6 10 10 9 9 9 11 9 6 8 11 3 1 2 6 0 13 4 8 3 10 12 11 3 2 4 8 8 8 6 7 7 6 6
11 14 8 13 20 23 22 18 9 10 8 15 15 4 4 7 10 16 17 13 10 5 3 6 6 8 12 11 14 13 12 13 13 10 5 7 10 2 4 12 13 12 11 8 10 2 5 3 8 3 7 9 5 1 0 1 2 1 4 7 7 5 5 5 8 4 1 3 3 2 4 14 6 5 7 9 7 5 4 3 8 9 8 8 8 7 5 5
10 11 10 18 19 23 19 14 14 11 6 4 2 3 3 7 11 14 17 11 9 4 8 7 14 14 8 11 9 10 9 3 9 13 6 4 6 4 10 15 15 16 10 4 5 5 6 4 5 1 2 3 3 1 2 3 1 2 2 1 2 8 6 6 5 5 6 2 2 2 7 8 7 6 6 5 5 5 5 5 9 9 7 7 7 6 6 5
8 15 13 13 19 19 22 17 15 11 9 7 7 4 3 4 13 14 13 13 8 8 14 10 10 16 14 10 18 18 18 8 7 8 2 3 6 5 14 17 23 13 15 10 14 9 5 2 9 3 2 2 4 2 2 2 2 1 1 2 2 1 1 2 4 3 3 7 6 6 19 6 3 3 4 3 4 6 6 5 6 8 7 5 6 5 4 3
12 7 10 9 7 12 15 7 20 19 14 18 14 5 7 2 10 19 18 15 1 7 8 8 13 12 10 16 15 13 18 13 7 5 3 4 6 1 13 18 24 16 16 11 9 9 7 5 10 8 11 10 6 9 15 12 8 3 2 5 7 10 7 6 6 5 9 9 8 6 15 2 4 4 4 3 2 5 5 5 4 7 7 8 7 5 4 3
12 11 4 8 6 9 2 4 5 10 16 20 14 3 5 8 6 8 11 4 1 4 2 8 5 13 9 12 9 10 16 1 8 9 12 9 4 2 5 14 21 15 10 16 13 13 4 3 7 11 14 16 13 2 3 11 4 7 4 7 5 4 6 5 2 7 18 4 6 19 17 2 3 3 4 6 3 5 7 5 5 5 4 5 6 5 4 4
6 13 12 6 7 6 5 2 9 12 15 17 12 7 10 12 10 6 7 4 6 10 4 10 10 12 10 21 16 14 15 5 4 10 10 11 1 2 3 11 5 3 12 10 14 7 4 5 12 13 9 4 2 2 6 13 11 10 8 9 6 5 6 8 10 18 5 3 17 10 2 9 10 3 6 7 6 6 7 4 5 5 6 6 4 3 3 3
7 3 13 11 16 15 9 8 14 14 12 17 5 4 8 13 13 13 4 3 5 9 14 1 16 18 23 22 17 13 13 7 5 12 6 2 6 1 6 2 6 2 7 6 9 9 7 12 5 5 6 2 1 6 11 10 11 10 12 13 12 11 9 15 18 12 6 13 20 3 9 13 7 9 10 8 5 6 13 5 2 5 6 5 3 3 3 4
3 6 2 4 6 14 18 26 26 21 20 20 4 9 9 17 19 13 6 6 8 8 12 13 20 23 26 21 18 12 18 11 6 4 10 10 12 8 4 3 3 2 1 4 5 1 6 5 3 6 6 2 3 5 7 11 6 6 11 14 17 15 18 21 19 14 12 15 16 8 11 13 5 10 10 10 9 7 5 3 3 3 6 5 4 5 6 6
11 15 8 3 3 12 12 11 12 17 17 17 7 7 10 18 20 9 1 9 10 10 3 18 18 16 20 21 20 18 23 25 23 14 5 14 5 6 11 8 8 1 1 5 4 2 5 4 7 4 3 4 5 1 3 5 7 7 8 12 16 19 22 23 18 15 14 16 18 13 14 21 6 6 7 7 4 3 2 6 8 9 5 3 5 7 8 9
3 3 2 13 11 7 11 14 16 19 15 13 9 5 6 14 17 12 3 2 15 13 9 21 20 18 16 19 14 18 23 19 18 25 24 26 21 18 16 5 10 11 5 5 4 0 4 2 1 5 6 5 1 6 3 1 2 2 8 14 18 19 16 12 9 7 9 19 18 12 16 19 1 9 6 4 1 2 8 11 10 7 5 4 5 7 8 10
3 1 4 7 7 10 15 15 13 13 14 17 11 5 6 17 12 11 7 2 1 3 9 16 17 17 9 16 19 18 16 12 13 10 17 10 7 6 6 10 17 17 10 10 4 7 6 6 5 3 7 5 1 4 6 4 1 6 13 25 21 12 14 11 13 14 19 17 11 13 21 1 8 3 4 1 6 10 10 10 10 9 9 7 7 9 9 10
Wind_Direction
229 230 227 213 214 221 210 207 202 192 188 187 185 183 182 179 175 174 176 174 167 168 163 158 153 151 150 141 143 145 121 88 92 47 135 239 154 139 151 143 147 159 127 100 108 105 45 14 1 2 21 1 318 344 311 31 341 58 57 108 244 203 147 210 173 189 213 141 219 193 190 135 179 188 194 70 35 46 20 76 312 337 5 242 273 197 129 133
229 228 228 217 211 222 217 207 204 193 188 187 188 184 182 180 177 175 177 175 172 168 166 161 156 152 148 147 145 130 80 74 104 94 206 150 136 146 146 151 149 154 118 93 117 136 136 114 89 57 39 10 325 294 358 301 6 99 133 106 228 181 239 160 197 186 134 237 187 193 181 170 199 143 203 127 226 142 119 294 354 314 343 36 72 136 122 139
233 227 224 224 217 210 222 207 201 193 189 188 188 188 184 180 178 175 176 177 173 171 167 163 156 154 151 144 142 118 84 34 33 240 239 166 153 150 151 145 140 137 114 135 132 135 156 148 130 91 29 325 358 311 352 295 3 253 128 251 252 214 249 227 181 211 203 131 156 179 223 180 209 152 138 176 173 205 186 180 314 200 223 154 156 144 139 146
236 231 225 225 222 214 214 207 203 194 190 190 189 188 186 180 178 175 174 176 173 170 167 163 159 155 150 145 129 108 74 57 253 232 210 162 154 145 136 122 112 107 93 71 115 103 106 105 97 93 94 94 301 360 350 312 39 308 91 187 239 224 296 273 204 248 227 178 188 196 85 175 217 184 152 151 133 237 242 224 172 190 175 171 168 159 151 153
236 232 230 226 222 216 215 208 202 199 190 182 185 185 188 183 176 174 172 173 170 167 164 162 160 154 151 143 135 103 84 64 254 190 179 164 153 143 132 124 119 99 105 117 89 100 106 112 116 81 101 187 4 344 327 331 103 165 214 208 241 270 228 268 230 254 220 203 130 133 146 213 106 38 162 156 179 207 209 212 221 172 166 160 166 171 161 163
231 230 230 225 224 218 216 207 204 196 190 179 183 185 181 185 181 174 171 169 168 165 162 162 158 157 152 143 120 115 131 190 263 262 172 159 149 140 128 122 118 115 117 110 118 126 104 88 106 117 112 111 182 165 225 23 313 50 312 306 254 243 275 282 339 347 152 121 137 172 207 90 162 207 194 182 198 229 270 181 183 175 172 171 163 161 171 172
225 227 227 226 222 219 209 214 203 200 186 178 179 178 175 183 182 175 170 167 165 162 162 160 157 156 150 116 97 134 185 265 334 241 160 150 145 133 129 124 120 113 109 109 129 128 140 137 123 165 122 88 174 205 272 327 205 120 244 331 316 329 229 267 298 331 215 162 202 174 96 153 151 200 181 198 228 292 315 224 158 158 144 145 156 176 175 181
222 225 223 223 220 214 211 207 207 199 193 182 178 175 173 177 178 175 170 167 164 163 161 160 158 155 133 125 125 182 199 249 263 230 154 139 130 133 128 128 125 122 127 143 148 139 140 147 162 129 115 163 187 159 303 321 13 73 300 355 306 333 274 288 277 331 231 200 335 126 152 205 186 198 88 232 225 284 22 115 123 137 148 166 170 177 186 186
223 223 220 221 217 213 211 201 216 197 193 187 177 173 173 174 175 172 170 166 163 162 162 158 161 153 147 118 137 140 218 232 231 178 151 135 131 131 131 118 151 136 139 140 155 149 143 197 135 163 192 158 177 124 291 143 298 93 297 332 313 307 300 290 311 349 23 234 124 118 201 353 147 238 233 236 222 217 130 119 133 144 157 174 184 184 183 190
226 223 218 217 214 214 207 205 203 210 198 185 173 172 172 172 170 171 168 165 167 164 161 162 158 156 138 121 106 188 224 268 258 166 153 139 138 141 144 140 149 123 121 149 114 154 159 176 158 176 119 46 162 140 209 144 213 20 348 332 309 293 295 305 234 275 304 200 178 185 193 133 331 105 262 246 188 124 117 139 153 155 172 182 184 192 195 189
222 222 219 215 210 212 211 206 197 198 194 191 173 168 170 169 165 161 169 166 167 165 162 163 158 150 150 147 158 201 328 172 190 157 147 146 143 147 155 154 157 144 142 147 160 171 132 136 141 122 43 197 139 79 215 205 270 26 353 328 315 313 267 260 314 263 83 279 157 151 164 259 300 58 234 248 156 147 138 154 165 179 177 185 190 191 196 202
217 219 219 214 208 206 212 204 196 189 186 177 174 167 166 166 161 164 166 169 167 165 163 162 160 149 101 152 180 194 335 256 187 154 144 150 153 141 144 152 163 158 147 156 173 179 155 157 152 162 172 135 155 95 239 193 48 14 14 338 308 324 311 262 224 244 148 256 145 151 90 312 238 233 232 245 133 137 150 168 177 188 190 190 192 194 196 206
214 214 217 213 205 203 205 209 189 186 181 175 173 170 168 166 165 162 163 164 167 164 164 160 157 143 135 153 225 260 279 315 125 128 126 113 87 72 108 74 71 64 165 151 163 164 156 154 163 96 153 138 157 157 191 79 17 9 25 350 312 326 302 263 153 314 158 250 139 134 226 253 236 236 220 191 136 107 130 179 190 193 192 194 196 200 207 204
212 210 213 211 203 199 203 203 190 189 178 179 174 171 169 167 164 160 159 161 157 166 163 157 141 136 147 170 278 268 293 102 121 130 145 138 107 98 102 55 80 63 91 101 93 128 131 103 104 109 69 111 165 197 65 21 22 107 294 179 248 321 270 296 203 191 160 201 144 98 216 263 247 253 240 165 175 156 176 195 198 201 198 197 200 207 210 208
208 208 209 208 200 199 199 195 181 187 182 177 173 170 165 164 163 160 156 154 158 158 155 137 158 120 152 226 325 296 119 118 141 161 155 139 121 110 120 89 81 99 84 114 130 104 130 121 108 111 126 280 105 90 41 47 35 50 18 277 339 184 281 296 284 170 176 256 125 110 243 242 253 265 257 191 168 172 187 194 202 202 203 202 203 211 215 216
206 205 204 204 200 197 194 191 183 189 181 172 170 166 162 160 159 157 152 158 157 150 141 152 193 154 133 170 209 94 113 151 186 164 167 141 141 135 132 98 105 89 103 59 107 121 124 87 96 170 127 43 88 116 91 61 337 36 170 299 278 332 257 336 242 229 328 107 346 168 218 305 285 254 288 234 171 181 196 206 206 210 211 208 209 211 218 224
203 202 201 202 198 195 188 190 183 184 173 170 166 163 159 157 155 153 158 152 149 143 154 166 163 150 159 321 108 161 181 207 123 133 115 145 132 132 117 116 118 117 90 100 127 108 24 67 258 68 15 126 148 126 118 202 214 224 109 206 233 240 266 249 298 274 215 138 200 235 223 235 243 281 315 200 195 173 205 217 214 211 213 214 212 214 218 220
199 198 198 199 195 190 187 189 181 186 176 166 160 158 155 153 151 144 134 130 92 98 88 350 145 135 334 173 177 193 141 118 153 145 102 325 142 141 138 132 128 129 124 107 171 136 322 98 300 169 78 139 159 161 170 204 191 176 151 209 273 249 217 252 222 232 140 299 179 213 231 252 259 274 275 220 192 191 210 210 208 210 216 220 217 217 224 225
196 195 194 196 192 188 184 187 181 183 181 169 160 155 147 137 142 138 135 140 142 149 176 177 163 191 206 185 111 111 145 138 108 133 148 126 159 112 50 93 135 136 142 147 253 123 356 79 64 129 183 181 189 186 175 87 112 139 169 176 192 231 237 216 237 271 179 174 220 195 210 241 253 259 250 184 182 201 231 271 269 237 230 230 223 225 224 227
192 191 191 192 188 184 183 184 179 178 170 166 154 143 145 149 162 152 166 159 179 157 6 168 167 63 83 120 139 126 99 117 126 173 125 163 129 117 116 137 133 121 142 166 170 183 123 166 188 198 198 178 178 182 139 111 129 109 125 231 258 245 278 274 263 272 292 156 221 207 217 232 245 246 251 170 158 201 250 248 233 231 223 222 225 225 226 227
188 187 188 188 184 182 181 181 174 169 163 160 161 156 165 155 152 150 148 151 152 16 123 157 172 168 156 121 114 127 123 7 112 149 169 170 138 130 161 141 147 138 180 150 148 141 115 186 215 197 164 172 169 159 171 138 126 122 69 312 290 245 271 256 254 350 322 182 258 217 229 247 248 258 247 134 148 219 213 228 237 231 222 222 223 229 228 229
185 184 185 185 183 180 179 176 174 168 162 161 168 182 153 161 193 161 145 166 166 21 175 156 68 69 65 126 160 138 104 102 127 163 221 163 169 148 206 156 160 164 119 108 87 139 197 213 169 138 127 132 157 158 177 180 201 110 162 275 281 269 242 277 247 242 305 138 268 34 212 251 251 252 243 173 204 233 217 213 226 220 217 225 228 234 236 243
181 182 182 181 181 179 178 175 175 168 163 165 173 176 177 138 113 108 65 94 111 319 127 132 74 107 110 83 166 144 134 155 167 181 181 205 162 181 155 152 155 136 135 154 163 161 195 229 166 143 133 142 153 168 165 192 233 185 180 230 231 267 283 298 312 18 298 153 276 224 215 270 271 262 258 217 203 243 232 219 235 212 223 224 224 222 225 229
178 179 179 178 178 177 174 174 174 169 181 170 172 174 118 116 129 143 110 117 141 53 138 147 116 129 140 143 205 144 142 138 121 177 177 167 164 128 145 159 144 148 174 176 173 181 196 110 154 147 156 160 162 171 176 182 213 203 196 218 234 251 248 205 281 347 299 328 87 66 328 293 251 263 279 252 226 242 256 242 253 241 231 235 258 294 230 230
175 176 176 175 176 172 174 167 174 180 171 172 167 120 133 145 148 149 113 100 20 8 90 56 42 126 167 338 133 128 264 55 40 123 161 166 148 141 181 137 133 184 172 176 160 184 246 214 122 137 159 166 165 180 195 176 203 217 225 204 225 255 277 284 311 329 349 309 250 177 320 258 288 273 241 257 151 240 247 233 241 233 233 236 238 239 243 241
173 173 173 173 172 171 166 171 181 167 171 182 160 160 146 145 157 147 108 99 138 166 164 187 155 199 167 103 88 95 113 117 247 155 148 208 8 135 123 181 147 180 170 162 167 189 187 190 161 166 161 176 185 197 194 175 196 181 225 181 218 251 292 293 290 105 284 248 288 141 212 270 319 274 241 238 232 236 250 220 242 240 241 236 234 237 236 233
169 170 170 170 170 160 161 193 159 159 168 182 168 150 143 133 128 8 131 327 165 192 163 67 149 157 153 169 115 128 142 206 83 120 167 255 167 311 161 164 76 47 144 136 70 245 124 154 179 172 168 176 189 204 196 182 157 225 122 151 196 274 280 265 232 208 238 289 301 304 183 228 270 259 245 315 297 271 268 258 258 250 241 236 234 235 235 233
166 167 167 167 167 169 175 152 167 170 176 146 156 151 131 115 85 56 18 157 212 124 173 157 211 117 102 180 150 136 228 121 115 207 190 259 101 138 161 182 173 159 159 150 195 236 152 172 178 181 183 187 207 193 145 172 177 198 176 196 208 178 232 311 215 237 262 289 269 256 288 256 248 270 313 21 270 273 259 253 251 247 238 239 238 238 236 233
164 164 165 164 164 175 178 169 163 167 150 148 146 138 116 90 91 152 198 210 117 85 102 107 268 95 111 97 126 55 125 157 153 164 139 100 276 143 175 198 134 154 174 176 185 188 261 176 184 173 175 208 169 141 173 176 185 258 95 86 82 90 81 74 242 258 289 228 246 232 181 221 275 274 310 341 231 253 259 256 247 241 234 232 236 241 241 239
162 162 161 162 163 173 172 154 176 135 135 146 144 119 105 93 114 183 184 234 144 149 170 157 178 161 152 147 145 109 133 97 76 105 163 171 195 80 44 123 126 141 185 271 321 210 207 330 170 156 196 189 168 181 173 181 187 100 119 96 73 46 34 28 75 116 337 250 241 228 250 200 280 238 205 187 218 199 239 269 264 261 259 258 254 254 256 251
161 161 162 160 169 163 139 163 146 136 134 133 126 117 112 86 167 157 187 195 84 8 96 165 146 148 147 144 155 159 129 118 95 122 151 285 252 60 136 84 44 72 108 216 265 319 15 50 137 240 161 158 149 166 193 169 184 149 162 148 126 209 12 25 326 61 214 254 258 232 198 163 223 293 263 236 259 225 215 229 244 254 260 256 250 250 252 244
163 162 161 164 160 159 170 157 152 136 137 134 125 127 135 139 310 188 168 180 155 181 154 139 159 158 158 163 148 159 150 107 152 154 169 188 181 174 190 177 159 145 184 191 215 12 220 168 251 211 270 164 164 152 201 176 172 188 132 161 151 229 126 254 227 235 219 229 318 68 175 27 242 230 272 269 249 263 222 223 240 248 265 267 262 258 264 261
163 162 162 163 155 173 159 149 148 140 144 132 122 133 147 165 177 185 115 163 207 160 189 160 163 167 162 144 155 141 139 147 169 176 169 175 157 215 254 166 189 141 182 170 129 156 270 260 183 214 105 244 164 172 167 174 195 188 188 169 158 166 168 214 225 316 316 288 270 322 339 272 267 283 235 255 260 244 234 231 242 250 258 270 273 280 279 261
164 162 165 164 162 157 127 142 142 143 145 130 127 141 149 179 178 52 153 172 156 159 142 151 142 128 146 155 158 149 141 163 162 167 169 170 181 184 214 239 175 151 91 161 176 181 170 222 241 155 204 161 180 186 174 149 157 200 125 169 180 164 166 201 187 211 221 219 256 272 88 233 125 245 232 231 268 301 270 235 248 253 259 266 279 287 277 270
165 166 161 156 143 143 145 150 149 151 135 136 135 160 169 159 120 159 167 156 127 131 138 136 137 143 160 132 147 163 124 122 173 154 176 170 197 192 192 196 206 136 123 143 237 126 206 196 275 324 283 163 179 223 154 123 162 194 172 92 172 216 114 157 212 169 272 288 293 210 212 191 186 266 287 243 267 283 271 261 247 266 264 270 280 264 258 250
165 166 162 152 143 157 147 150 155 146 142 137 146 175 185 172 160 174 184 162 153 153 144 140 145 144 149 120 163 165 249 143 178 149 184 195 194 195 194 180 182 184 163 174 163 158 144 231 319 310 72 140 183 141 190 163 183 191 121 212 208 130 159 234 35 10 72 32 256 155 312 291 300 313 282 329 322 274 280 270 264 273 291 307 266 271 271 265
171 147 159 159 150 158 151 152 156 145 143 149 156 178 184 173 244 158 157 170 165 144 148 147 179 149 162 160 168 176 176 112 169 154 191 172 216 211 193 205 169 173 185 128 209 206 148 226 353 92 179 322 206 184 135 19 150 115 203 211 97 67 97 158 228 2 210 230 260 70 236 301 345 278 322 340 296 279 285 277 270 286 291 283 261 255 256 256
142 160 128 151 154 155 154 154 146 147 145 152 180 166 75 156 193 146 127 138 135 157 155 159 173 161 171 161 176 173 176 159 180 175 180 173 232 192 190 191 194 182 185 192 138 239 122 69 258 3 138 280 356 115 47 335 330 181 195 163 157 202 217 274 143 235 203 239 272 298 308 264 193 241 331 305 270 269 271 277 293 267 259 250 253 253 251 263
124 151 137 156 153 153 159 149 137 141 147 161 181 155 235 204 149 163 160 156 162 163 166 187 148 200 159 172 161 166 162 175 166 184 151 213 201 191 188 172 187 172 174 157 156 173 76 134 301 336 133 272 16 117 201 175 336 70 74 163 269 103 234 144 201 159 121 256 10 282 14 251 199 217 208 265 277 263 253 275 274 267 259 260 259 251 243 244
138 167 108 154 150 149 154 142 137 143 151 174 169 180 170 138 160 165 161 158 169 166 194 161 173 136 165 159 157 159 184 154 165 180 181 193 187 325 186 168 165 183 165 177 174 170 179 119 172 293 290 79 193 203 209 153 159 112 124 195 200 194 283 110 103 185 205 206 206 251 295 272 250 213 193 217 226 249 273 254 263 265 256 246 245 243 243 240
135 107 104 156 153 147 141 133 150 160 167 143 143 146 157 158 133 166 165 177 159 322 176 169 161 163 163 139 161 155 130 129 169 177 177 165 184 173 220 176 133 161 119 145 145 182 108 120 165 112 79 220 240 236 186 184 188 179 170 194 182 158 192 184 238 46 93 201 242 231 264 253 268 183 208 224 239 271 250 248 274 279 278 281 274 261 239 250
148 151 172 164 151 149 143 149 153 165 164 162 170 152 143 132 149 170 166 181 164 156 31 126 129 129 139 153 155 160 152 161 172 169 207 156 197 117 181 129 148 150 152 180 176 234 143 128 107 167 206 200 215 38 249 102 53 190 173 211 177 172 123 194 219 247 2 257 106 178 306 257 222 204 213 231 253 256 259 238 270 273 277 275 266 257 251 234
158 125 128 154 160 148 139 140 157 164 146 185 54 56 119 140 155 170 164 187 171 185 141 166 165 138 180 149 149 147 150 144 167 190 158 136 173 179 167 150 139 159 154 152 114 201 92 107 114 312 319 314 303 325 41 18 54 289 299 77 130 193 185 177 163 188 182 213 221 263 254 273 166 186 216 239 259 274 269 238 253 274 279 287 274 271 262 263
110 128 138 172 168 155 144 165 159 159 152 140 156 141 51 148 158 168 177 185 163 186 163 158 167 165 158 162 155 169 168 146 224 165 110 168 174 207 157 157 155 170 170 195 178 189 153 259 119 82 20 344 340 332 334 348 52 142 170 202 169 8 39 122 93 94 245 206 183 164 249 273 275 355 252 227 286 284 269 254 210 261 286 285 290 285 281 265
117 94 114 146 187 159 156 166 163 163 160 159 167 138 145 120 193 179 172 176 177 161 144 172 167 153 149 157 170 163 177 170 146 229 77 168 171 105 187 163 175 175 196 177 162 149 184 181 147 159 174 182 197 208 214 206 181 210 205 189 189 188 167 164 217 204 239 216 170 217 247 252 284 325 327 294 326 304 283 266 251 224 258 296 307 299 277 245
151 127 147 125 154 164 114 24 122 146 152 161 158 172 137 156 179 213 162 171 214 94 85 113 63 118 122 136 138 156 179 4 145 182 161 169 148 230 198 190 179 185 164 139 144 148 174 159 192 196 189 197 206 215 40 102 81 190 218 179 220 207 204 205 176 205 226 206 194 235 241 340 305 320 326 299 269 254 283 308 311 308 296 267 252 262 245 227
125 128 146 110 89 181 91 44 143 158 167 162 160 165 170 174 163 188 224 145 214 142 127 139 146 138 166 151 165 171 177 97 36 132 179 152 345 131 34 175 179 88 143 138 158 113 111 183 210 207 209 214 149 167 188 147 184 204 159 200 193 172 177 190 195 228 109 97 246 235 85 247 235 263 271 279 296 297 278 242 283 299 285 268 263 271 272 259
120 176 143 153 156 167 145 173 167 165 157 163 139 110 167 161 170 172 202 269 162 159 128 273 164 164 165 170 152 156 169 161 128 160 140 140 110 99 87 6 171 296 155 159 179 163 159 205 201 152 232 192 179 161 163 168 185 176 181 191 191 196 184 205 225 225 140 210 243 147 195 231 225 202 233 246 247 264 275 299 210 255 274 290 288 272 260 244
70 95 130 20 22 175 174 166 164 163 159 170 122 153 164 175 183 184 158 162 161 189 163 158 185 170 168 160 154 159 165 153 220 161 162 166 154 134 89 70 275 18 147 129 175 164 152 219 159 173 191 195 216 185 186 169 188 171 189 197 201 192 207 213 223 220 211 240 250 229 241 240 185 213 216 231 240 252 282 282 269 243 232 234 240 247 243 242
145 154 153 25 52 132 86 103 138 150 164 169 143 204 173 179 179 171 217 162 165 190 192 160 170 169 164 163 166 167 182 185 167 156 167 130 143 170 166 173 147 79 105 147 157 283 147 247 135 109 141 235 231 185 222 199 155 189 220 216 208 207 211 214 217 220 224 251 254 261 268 266 234 200 227 245 262 31 328 292 263 263 274 208 209 226 233 236
77 6 115 134 119 124 112 143 154 164 162 182 181 191 166 188 185 173 174 251 179 168 174 166 157 157 166 169 178 183 183 180 164 170 163 156 172 184 157 224 152 148 150 141 160 136 157 220 32 115 164 251 202 161 192 69 16 220 223 219 220 213 218 224 223 216 207 232 238 245 256 253 178 222 217 230 311 260 258 257 258 261 254 225 226 238 236 239
71 23 78 93 79 134 138 150 157 155 184 187 170 182 182 194 177 160 149 360 52 163 143 135 147 141 174 178 190 189 183 169 168 152 162 154 94 89 61 135 150 154 159 168 161 140 162 126 149 146 165 222 305 108 112 88 39 318 252 227 211 204 209 212 223 218 216 223 233 231 244 199 212 184 190 239 218 237 246 254 259 254 240 219 226 234 241 244